Location: Newark
(42.7133°N, 87.7910°W)
Time: 04:35:59
(UTC+00:00)

Vanguard 1 - Pass Details

Date: 29 October 2019
Orbit: 652 x 3831 km, 34.2° (Epoch: 16 November)

Event Time Altitude Azimuth Distance (km) Brightness Sun altitude
Rises 03:44:01 0° 271° (W) 4,512 13.9 -52.1°
Reaches altitude 10° 03:46:53 10° 262° (W) 3,878 13.3 -52.5°
Enters shadow 03:49:28 20° 250° (WSW) 3,466 12.9 -52.8°
